DateTimeUTC,F1_A11,F1_S11,BsB_S11,BsG_S11,BsR_S11,BbsB_S11,BbsG_S11,BbsR_S11,BaB_A11,BaG_A11,BaR_A11,Tu_S11,T_S11,Uu_S11,U_S11,P_S11,T1_A11
2021-03-11T01:00:00Z,00000200,21000000,,,,,,,-000.09,-000.25,-000.20,16.7,24.6,,00.0,0639.2,30.9
2021-03-11T01:01:00Z,00000200,21000000,,,,,,,-000.16,0000.01,0000.18,16.8,24.6,,00.0,0639.2,30.9
2021-03-11T01:02:00Z,00000200,21000000,,,,,,,-000.11,0000.08,-000.19,16.8,24.6,,00.0,0639.2,30.9
2021-03-11T01:03:00Z,00000200,61000000,,,,,,,0000.53,0000.21,0000.11,16.8,24.6,,00.0,0639.2,30.9
2021-03-11T01:04:00Z,00000200,41000000,0003.98,0002.16,0001.26,0000.30,0000.38,0000.26,0001.14,0000.77,0000.79,17.2,24.5,,00.0,0640.2,31.0
2021-03-11T01:05:00Z,00000200,01000000,0004.14,0002.49,0001.27,0000.20,0000.48,0000.55,0000.69,0001.21,0000.41,17.3,24.5,,00.0,0640.3,31.0
2021-03-11T01:06:00Z,00000200,01000000,0003.92,0002.41,0000.88,0000.42,0000.43,0000.42,0001.26,0000.97,0000.87,17.4,24.5,,00.0,0640.3,31.0
2021-03-11T01:07:00Z,00000200,01000000,0003.67,0002.10,0000.99,0000.46,0000.28,0000.32,0001.01,0000.97,0000.99,17.5,24.5,,00.0,0640.3,31.0
2021-03-11T01:08:00Z,00000200,01000000,0003.42,0002.45,0001.05,0000.44,0000.27,0000.14,0001.28,0000.77,0000.50,17.5,24.5,,00.0,0640.4,31.0
2021-03-11T01:09:00Z,00000200,01000000,0003.91,0002.22,0001.30,0000.70,0000.49,0000.42,0001.33,0001.31,0000.52,17.6,24.6,,00.0,0640.3,31.0
2021-03-11T01:10:00Z,00000200,01000000,0003.87,0002.11,0001.09,0000.58,0000.43,0000.26,0000.66,0000.96,0001.19,17.7,24.6,,00.0,0640.3,31.0
2021-03-11T01:11:00Z,00000200,01000000,0003.34,0002.27,0001.24,0000.35,0000.54,0000.43,0001.31,0001.29,0000.81,17.7,24.6,,00.0,0640.3,31.0
2021-03-11T01:12:00Z,00000200,01000000,0003.59,0002.38,0001.58,0000.64,0000.49,0000.32,0001.24,0000.89,0000.62,17.7,24.6,,00.0,0640.3,31.0
2021-03-11T01:13:00Z,00000200,01000000,0003.53,0002.29,0000.92,0000.11,0000.42,0000.31,0001.29,0000.94,0000.76,17.6,24.6,,00.0,0640.3,31.0
2021-03-11T01:14:00Z,00000200,01000000,0003.11,0002.54,0001.16,0000.19,0000.48,0000.38,0001.03,0001.15,0000.64,17.5,24.6,,00.0,0640.3,31.0
2021-03-11T01:15:00Z,00000200,01000000,0003.76,0002.23,0001.33,0000.32,0000.37,0000.38,0001.17,0000.98,0000.88,17.5,24.6,,00.0,0640.3,31.0
2021-03-11T01:16:00Z,00000200,01000000,0002.79,0002.37,0001.12,0000.60,0000.54,0000.48,0000.95,0000.97,0000.78,17.4,24.5,,00.0,0640.3,30.9
2021-03-11T01:17:00Z,00000200,01000000,0003.76,0002.08,0001.25,0000.38,0000.41,0000.42,0001.20,0000.78,0000.37,17.3,24.5,,00.0,0640.2,30.9
2021-03-11T01:18:00Z,00000200,01000000,0003.39,0002.29,0001.35,0001.09,0000.34,0000.34,0001.00,0000.96,0001.22,17.3,24.5,,00.0,0640.2,30.9
2021-03-11T01:19:00Z,00000200,01000000,0003.55,0002.15,0001.38,0000.94,0000.47,0000.49,0000.89,0001.13,0000.43,17.2,24.4,,00.0,0640.2,30.9
2021-03-11T01:20:00Z,00000200,01000000,0003.43,0002.19,0001.37,0000.09,0000.26,0000.39,0001.24,0000.93,0000.34,17.2,24.4,,00.0,0640.3,30.9
2021-03-11T01:21:00Z,00000200,01000000,0003.28,0002.13,0001.41,0000.17,0000.40,0000.28,0001.13,0000.96,0000.96,17.1,24.4,,00.0,0640.3,30.9
2021-03-11T01:22:00Z,00000200,01000000,0003.77,0002.35,0001.08,0000.09,0000.33,0000.31,0000.93,0000.53,0000.64,17.1,24.3,,00.0,0640.3,30.9
2021-03-11T01:23:00Z,00000200,01000000,0003.38,0002.41,0001.34,0000.58,0000.37,0000.39,0001.06,0000.91,0000.68,17.0,24.3,,00.0,0640.3,30.9
2021-03-11T01:24:00Z,00000200,01000000,0003.62,0002.00,0000.95,0000.21,0000.42,0000.11,0001.07,0000.85,0000.70,17.0,24.3,,00.0,0640.2,30.9
2021-03-11T01:25:00Z,00000200,01000000,0003.55,0002.05,0001.09,0000.09,0000.33,0000.27,0000.99,0001.10,0000.62,16.9,24.2,,00.0,0640.2,30.9
2021-03-11T01:26:00Z,00000200,01000000,0003.37,0002.26,0000.97,0000.58,0000.30,0000.23,0001.08,0000.91,0000.77,16.9,24.2,,00.0,0640.2,30.9
2021-03-11T01:27:00Z,00000200,01000000,0003.64,0002.00,0000.89,0000.35,0000.28,0000.16,0001.05,0001.02,0000.55,16.8,24.2,,00.0,0640.2,30.9
2021-03-11T01:28:00Z,00000200,01000000,0003.24,0001.87,0000.92,0000.31,0000.40,0000.25,0000.64,0000.17,0000.66,16.8,24.2,,00.0,0640.2,30.9
2021-03-11T01:29:00Z,00000200,01000000,0003.20,0002.02,0001.00,-000.19,0000.39,0000.25,0001.49,0001.81,0001.14,16.8,24.1,,00.0,0640.2,30.9
2021-03-11T01:30:00Z,00000200,01000000,0002.96,0001.90,0001.44,0000.21,0000.30,0000.26,0000.69,0000.72,0000.30,16.9,24.1,,00.0,0640.2,30.9
2021-03-11T01:31:00Z,00000200,01000000,0002.89,0001.93,0001.07,0000.33,0000.41,0000.48,0001.12,0001.00,0000.55,17.0,24.2,,00.0,0640.2,30.9
2021-03-11T01:32:00Z,00000200,01000000,0002.38,0001.85,0001.04,0000.40,0000.38,0000.24,0000.83,0000.75,0001.06,17.0,24.2,,00.0,0640.2,30.9
2021-03-11T01:33:00Z,00000200,01000000,0003.34,0001.90,0001.15,0000.38,0000.25,0000.24,0001.23,0001.08,0000.56,17.1,24.2,,00.0,0640.3,30.9
2021-03-11T01:34:00Z,00000200,01000000,0002.87,0001.94,0000.98,0000.40,0000.61,0000.53,0001.05,0000.68,0000.64,17.2,24.3,,00.0,0640.3,30.9
2021-03-11T01:35:00Z,00000200,01000000,0003.27,0001.90,0001.03,0000.25,0000.32,0000.38,0001.10,0000.99,0000.51,17.2,24.3,,00.0,0640.3,31.0
2021-03-11T01:36:00Z,00000200,01000000,0003.12,0001.77,0000.92,0000.45,0000.35,0000.36,0000.86,0000.72,0001.09,17.3,24.3,,00.0,0640.3,31.0
2021-03-11T01:37:00Z,00000200,01000000,0002.82,0002.08,0000.92,0000.15,0000.41,0000.25,0001.04,0001.03,0000.16,17.3,24.4,,00.0,0640.3,31.0
2021-03-11T01:38:00Z,00000200,01000000,0002.86,0001.98,0001.11,0000.52,0000.22,0000.45,0000.99,0001.01,0000.86,17.4,24.4,,00.0,0640.3,31.0
2021-03-11T01:39:00Z,00000200,01000000,0003.23,0001.90,0000.90,0000.14,0000.39,0000.31,0000.73,0000.90,0000.62,17.4,24.4,,00.0,0640.3,31.0
2021-03-11T01:40:00Z,00000200,01000000,0002.51,0001.92,0001.08,0000.31,0000.30,0000.03,0000.99,0000.78,0000.59,17.4,24.4,,00.0,0640.3,31.0
2021-03-11T01:41:00Z,00000200,01000000,0003.13,0001.50,0000.91,0000.46,0000.14,0000.25,0001.00,0000.76,0000.60,17.4,24.4,,00.0,0640.4,31.0
2021-03-11T01:42:00Z,00000200,01000000,0002.95,0001.73,0000.89,0000.23,0000.42,0000.18,0001.01,0000.86,0000.63,17.3,24.4,,00.0,0640.3,30.9
2021-03-11T01:43:00Z,00000200,01000000,0002.47,0001.59,0000.73,0000.27,0000.47,0000.24,0001.23,0000.89,0000.68,17.3,24.3,,00.0,0640.3,30.9
2021-03-11T01:44:00Z,00000200,01000000,0002.41,0001.61,0000.76,0000.13,0000.56,0000.16,0000.97,0000.80,0000.61,17.3,24.3,,00.0,0640.3,30.9
2021-03-11T01:45:00Z,00000200,01000000,0002.51,0001.69,0000.62,0000.28,0000.23,0000.39,0000.90,0000.61,0000.48,17.3,24.4,,00.0,0640.3,31.0
2021-03-11T01:46:00Z,00000200,01000000,0002.28,0001.61,0000.64,0000.65,0000.30,0000.22,0000.82,0000.96,0000.68,17.4,24.4,,00.0,0640.3,31.0
2021-03-11T01:47:00Z,00000200,01000000,0002.57,0001.63,0000.92,0000.37,0000.32,0000.41,0000.75,0000.87,0000.91,17.4,24.4,,00.0,0640.3,31.0
2021-03-11T01:48:00Z,00000200,01000000,0002.91,0001.65,0000.75,0000.50,0000.48,0000.30,0001.22,0000.97,0000.44,17.5,24.4,,00.0,0640.3,31.0
2021-03-11T01:49:00Z,00000200,01000000,0002.83,0001.57,0000.71,0000.25,0000.39,0000.13,0000.85,0000.92,0000.62,17.6,24.5,,00.0,0640.3,31.0
2021-03-11T01:50:00Z,00000200,01000000,0003.22,0001.69,0000.84,0000.46,0000.34,0000.16,0000.87,0000.52,0000.90,17.6,24.5,,00.0,0640.3,31.0
2021-03-11T01:51:00Z,00000200,01000000,0002.09,0001.39,0000.69,0000.47,0000.40,0000.39,0000.49,0000.67,0000.08,17.6,24.5,,00.0,0640.3,31.0
2021-03-11T01:52:00Z,00000200,01000000,0002.89,0001.62,0000.70,0000.25,0000.37,0000.15,0001.01,0001.02,0000.62,17.6,24.5,,00.0,0640.3,31.0
2021-03-11T01:53:00Z,00000200,01000000,0002.38,0001.53,0000.95,0000.40,0000.42,0000.25,0001.09,0000.85,0000.72,17.5,24.5,,00.0,0640.3,31.0
2021-03-11T01:54:00Z,00000200,01000000,0002.61,0001.50,0000.78,0000.48,0000.51,0000.27,0001.06,0000.81,0000.46,17.5,24.5,,00.0,0640.3,31.0
2021-03-11T01:55:00Z,00000200,01000000,0002.74,0001.27,0000.69,0000.23,0000.27,0000.07,0000.60,0000.68,0000.43,17.4,24.5,,00.0,0640.3,30.9
2021-03-11T01:56:00Z,00000200,01000000,0001.77,0001.64,0000.99,-000.20,0000.17,0000.46,0000.91,0000.85,0000.71,17.3,24.4,,00.0,0640.3,30.9
2021-03-11T01:57:00Z,00000200,41000000,,,,,,,0001.52,0001.28,0001.06,17.4,24.4,,00.0,0640.3,30.9
2021-03-11T01:58:00Z,00000200,61000000,,,,,,,-000.35,-000.38,-000.17,16.9,24.5,,00.0,0639.4,30.9
2021-03-11T01:59:00Z,00000200,21000000,,,,,,,-000.49,-000.26,-000.64,16.9,24.6,,00.0,0639.3,30.9
